TimeEDT,TemperatureF,Dew PointF,Humidity,Sea Level PressureIn,VisibilityMPH,Wind Direction,Wind SpeedMPH,Gust SpeedMPH,PrecipitationIn,Events,Conditions,WindDirDegrees,DateUTC
12:53 AM,81.0,72.0,74,30.10,10.0,SW,3.5,-,N/A,,Scattered Clouds,230,2013-07-23 04:53:00
1:53 AM,81.0,73.0,77,30.09,10.0,Calm,Calm,-,N/A,,Mostly Cloudy,0,2013-07-23 05:53:00
2:53 AM,81.0,73.0,77,30.08,10.0,South,4.6,-,N/A,,Mostly Cloudy,190,2013-07-23 06:53:00
3:53 AM,80.1,73.0,79,30.06,10.0,South,4.6,-,N/A,,Scattered Clouds,190,2013-07-23 07:53:00
4:53 AM,80.1,72.0,76,30.05,10.0,South,4.6,-,N/A,,Partly Cloudy,180,2013-07-23 08:53:00
5:53 AM,80.1,72.0,76,30.06,10.0,SW,3.5,-,N/A,,Partly Cloudy,220,2013-07-23 09:53:00
6:53 AM,80.1,73.0,79,30.08,10.0,SW,4.6,-,N/A,,Mostly Cloudy,220,2013-07-23 10:53:00
7:53 AM,82.0,73.9,76,30.09,10.0,SSW,6.9,-,N/A,,Mostly Cloudy,210,2013-07-23 11:53:00
8:53 AM,84.9,73.9,69,30.09,10.0,SSW,6.9,-,N/A,,Scattered Clouds,210,2013-07-23 12:53:00
9:53 AM,87.1,70.0,57,30.09,10.0,SW,8.1,-,N/A,,Scattered Clouds,230,2013-07-23 13:53:00
10:53 AM,88.0,70.0,55,30.09,10.0,SSW,4.6,-,N/A,,Scattered Clouds,210,2013-07-23 14:53:00
11:53 AM,89.1,69.1,52,30.08,10.0,WSW,6.9,-,N/A,,Mostly Cloudy,240,2013-07-23 15:53:00
12:53 PM,93.0,68.0,44,30.06,10.0,Variable,5.8,-,N/A,,Scattered Clouds,0,2013-07-23 16:53:00
1:53 PM,93.0,69.1,45,30.05,10.0,South,5.8,-,N/A,,Scattered Clouds,180,2013-07-23 17:53:00
2:53 PM,90.0,73.9,59,30.02,10.0,SE,15.0,-,N/A,,Scattered Clouds,130,2013-07-23 18:53:00
3:53 PM,91.0,73.9,57,30.00,10.0,SE,13.8,-,N/A,,Scattered Clouds,140,2013-07-23 19:53:00
4:53 PM,89.1,73.0,59,29.99,10.0,SE,10.4,-,N/A,,Scattered Clouds,140,2013-07-23 20:53:00
5:26 PM,86.0,75.2,70,29.99,2.0,SE,18.4,21.9,0.00,Rain,Heavy Rain,140,2013-07-23 21:26:00
5:33 PM,84.2,75.2,74,29.99,9.0,SE,11.5,-,0.07,Rain,Light Rain,140,2013-07-23 21:33:00
5:53 PM,86.0,75.0,70,29.99,10.0,SE,15.0,-,0.07,Rain,Light Rain,140,2013-07-23 21:53:00
6:53 PM,86.0,75.0,70,29.99,10.0,SE,11.5,-,0.00,,Scattered Clouds,140,2013-07-23 22:53:00
7:53 PM,84.9,73.0,67,29.98,10.0,SE,10.4,-,N/A,,Scattered Clouds,140,2013-07-23 23:53:00
8:53 PM,84.0,72.0,67,29.98,10.0,SSE,10.4,-,N/A,,Scattered Clouds,160,2013-07-24 00:53:00
9:53 PM,84.0,72.0,67,29.99,10.0,South,6.9,-,N/A,,Scattered Clouds,180,2013-07-24 01:53:00
10:53 PM,84.0,72.0,67,30.01,10.0,South,6.9,-,0.00,,Scattered Clouds,190,2013-07-24 02:53:00
11:53 PM,84.0,72.0,67,30.02,10.0,SSW,8.1,-,N/A,,Mostly Cloudy,210,2013-07-24 03:53:00